GLOBALSTAR M093 [+] (39073 NORAD) Tracking and Keplerian Element Data

This shows tracking and keplerian element data for the satellite.

Feedback or suggestion? Click here.




ElementValue
Catalog39073
NameGLOBALSTAR M093 [+]
Epoch Orbit25181
Epoch Day198.88894954
Epoch Year2018
RAAN42.1217
Inclination51.9822
Eccentricity0.0001464
Argument of Perigee72.2134
Mean Anonmoly287.8892
Mean Motion12.62265329
Decay Rate-1.06E-06
L11 39073U 13005B 18198.88894954 -.00000106 00000-0 -11935-4 0 9995
L22 39073 51.9822 42.1217 0001464 72.2134 287.8892 12.62265329251811

Live tracking and technical data element details for GLOBALSTAR M093 [+] (NORAD 39073). GLOBALSTAR M093 [+] can be tracked NOW for your location showing map with azimuth and elevation plus other details from your city location.

Track the satellite on the map from your city or location and see movement details for azimuth, elevation, latitude, longitude, range, height, and movement on the map or in text.







IsCatalogInMostPopularTable: catalog: 39073, numindb: 64
Update: records affected: 1



GetName: 39073 GLOBALSTAR M093 [+]

Hit Count: updated at: Wed, 18 Jul 2018 20:32:22 GMT